Timeline UpdatesTrip UpdatesNews PostsPvt PostsTravel TipsAdmin PostsConv PostsFollowed PostsChat RequestsBlog PostsPNR Posts

Disclaimer
Search
 
 
Fri Sep 19, 2014 05:17:44 ISTHomeTrainsΣChainsAtlasPNRForumGalleryNewsFAQTripsMembersLoginFeedback
No Recent News for this Train
Other Trains in the News **new
Latest...
Will be short terminated at Sambalpur & will run back as 58132 Puri - Rourkela Passenger from Sambalpur to Rourkela on 11/6/14 #1126575
Sat Jun 07, 2014 (12:57PM)
⇐ Return Journey: Train# 58132

58131/Rourkela-Puri Passenger (UnReserved)

Time-Table HAS CHANGED.
Sep 03 (11:53PM)
Change Departure Station:
Change Arrival Station:
Post a Train Travel TipPost a Train Travel Tip **new
Post a Comment/Question/Picture/VideoPost a Comment/Question/Picture/Video
Pantry/Catering
✕ NO Pantry Car
✕ NO Catering
Loco/Rake Reversals
SBP/Sambalpur Junction (3);
RSA - Rake Sharing
Rake/Coach Composition
Loco
BNDM-WDM-3A. Ref: Entry# 779885
News    PNR    Forum    Time-Table    Availability    Fare Chart    Map    Arr/Dep History    Trips    Gallery    ΣChains    X/O    Timeline    
Travel Time: 3h 50m    21 halts    Distance: 150 km    Avg Speed: 39 km/hr
Type: Passenger
Zone: SER/South Eastern
Departs @ 08:00
Platform# 3
SMTWTFS
Rourkela Junction/ROU 
Arrives @ 11:50
Platform# ???
SMTWTFS
Sambalpur Junction/SBP 

21 halts. 22 intermediate Stations between Rourkela Junction and Sambalpur Junction

Show ALL intermediate Stations  Show Old Time-Table

#CodeStation NameX/OArrivesAvgDepartsAvgHaltPFDay#KmSpeedElevZoneAddress
1ROURourkela Junction (5)»  -08:00-310.045198mSERRourkela, Odisha
2PPOPanposh (2)X  08:08-08:09-1m--16.050190mSERRourkela, Odisha
3KLGKalunga  08:18-08:19-1m--113.553203mSERSundargarh, Odisha
4KXNKanshbahal  08:27-08:28-1m--120.655217mSERSundargarh, Odisha
5GPRaj Gangpur (3)  08:38-08:39-1m--129.849237mSERRaj Ganpur, Odisha
6SXNSonakhanX  08:48-08:49-1m--137.148249mSERSundargarh, Odisha
7SOGRSograO  08:57-08:58-1m--143.640293mSERState Highway 10, Odisha
8GPHGarpos (3)X  09:05-09:06-1m--148.358281mSERSundargarh, Odisha
9TGMTangarmunda  09:14-09:15-1m--156.063264mSERSundargarh, Odisha
10BMBBamra (3)  09:23-09:24-1m--164.458259mSERBamra PH : 06642-229268, Odisha
11DIHDharuadihiX  09:34-09:35-1m--174.147258mSERSH 24, Odisha
12BEHBagdihi (3)  09:43-09:44-1m--180.349257mSERState Highway 24 PH: 06640-286227, Odisha
13PNPLPanpaliX  09:52-09:53-1m--186.947258mSERJharsuguda, Odisha
14DTVDhutra  10:01 10:00-10:02 10:01-1m--192.318240mSERJharsuguda, Odisha
15JSGJharsuguda Junction (5)  10:30-10:35-5m11100.927236mSERJharsuguda, Odisha
16JSGRJharsuguda Road new halt!!  10:40-10:42-2m--1103.244225mECoRJharsuguda, Odisha
17BXQBrundamal  10:48-10:50-2m--1107.767209mECoRJharsuguda, Odisha
18LPGLapanga  10:58-11:00-2m--1116.565215mECoRJharsuguda, Odisha
19RGLRengali  11:10-11:12-2m--1127.371208mECoRState Highway 10, Odisha
20SSNSason  11:20-11:22-2m--1136.838171mECoRState Highway 10, Odisha
21SLRASarla Junction new halt!!  11:30-11:32-2m--1141.946160mECoRPardhiapali, Odisha
22SBPDSambalpur Road new halt!!X  11:40-11:42-2m21148.111161mECoRSambalpur, Odisha
23SBPSambalpur Junction (3)•11:50-12:10-20m--1149.618159mECoRSambalpur, Odisha
24SBPYSambalpur City  12:30-12:32-2m--1155.567161mECoRSambalpur, Odisha
25MANEManeswarX  12:40-12:42-2m--1164.492160mECoROrissa, Odisha
26HATBHatibari  12:50-12:52-2m--1176.788189mECoROrissa, Odisha
27JUJAJujumura  13:00-13:02-2m--1188.4130217mECoRSambalpur, Odisha
28CHARCharmalX  13:10-13:12-2m--1205.769160mECoROrissa, Odisha
29RAIRRairakhol  13:25-13:27-2m--1220.773144mECoRSH 24, Odisha
30BAMRBamur  13:40-13:42-2m--1236.573181mECoRBamur, Odisha
31SRGPSaragipali  13:50-13:52-2m--1246.2105197mECoROrissa, Odisha
32HNPAHandapa  14:00-14:02-2m--1260.352257mECoRNational Highway 42, Odisha
33BONABoinda  14:10-14:12-2m--1267.2116292mECoRState Highway 62, Odisha
34JRPDJarapada  14:20-14:22-2m--1282.734205mECoRNational Highway 42, Odisha
35KPJGKerejangaX  14:40-14:42-2m--1292.812164mECoRNational Highway 42, Odisha
36ANGLAngul (2)X  15:50-16:00-10m--1306.1147120mECoRAngul District, Odisha
37TLHDTalcher Road  16:09 16:05-16:10 16:06-1m--1318.41973mECoRBhogabereni, Odisha
38TLHRTalcher  16:25-16:50-25m--1324.23186mECoRSub-division Angul district, Odisha
39BDPKBurhapanka  17:17 17:11-17:18 17:12-1m--1335.05779mECoROrissa, Odisha
40MRDLMeramandolil  17:26 17:20-17:27 17:21-1m--1342.66673mECoROrissa, Odisha
41NBTNayabagirthipur  17:30 17:29-17:31 17:30-1m--1351.45659mECoRDhenkanal, Odisha
42HNDHindol Road  17:41 17:35-17:42 17:36-1m--1356.04764mECoROrissa, Odisha
43MHDBMahadia Ph  17:43 17:42-17:44 17:43-1m--1360.84566mECoRMahadia, Odisha
44SSPRSadashibapur  17:55 17:49-17:56 17:50-1m--1365.35654mECoROrissa, Odisha
45DNDLDandi Mal  17:57 17:54-17:58 17:55-1m--1369.03071mECoRIndipur, Odisha
46DNKLDhenkanal (2)X  18:19 18:10-18:20 18:15-1 5m--1376.55859mECoRDhenkanal, Odisha
47SCPRShyama Charanpur Halt  18:25 18:20-18:26 18:21-1m--1381.32894mECoRDhenkanal, Odisha
48JRZJoranda Road  18:37 18:28-18:38 18:29-1m--1384.68162mECoRDhenkanal, Odisha
49RJGRRajathagarh  18:47 18:38-18:48 18:39-1m--1396.73758mECoRRaj Athgarh, Odisha
50MZYMachapur  18:53 18:44-18:54 18:45-1m--1399.84648mECoRKapilash Rd, Odisha
51GJTAGurudijhatia  19:02 18:53-19:03 18:54-1m--1406.05733mECoRGurudijhat, Odisha
52BDPGBada Padagaon  19:05 18:59-19:06 19:00-1m--1410.84731mECoRCuttack, Odisha
53CBTCharbatia  19:14 19:05-19:15 19:06-1m--1414.64235mECoRCuttack, Odisha
54SQQSalagaonX  19:22 19:13-19:23 19:14-1m--1419.53329mECoRCuttack, Odisha
55NRGNergundi  19:44 19:21-19:45 19:22-1m--1423.43026mECoRCuttack District, Odisha
56MACRManguli Chowdwar  19:48 19:27-19:49 19:28-1m--1425.94825mECoROrissa, Odisha
57KNPRKendrapara Road  19:56 19:33-19:57 19:34-1m--1429.93129mECoRKendrapara Road, Odisha
58CTCCuttack Junction (5)XO  20:05 19:42-20:10 19:45-5 3m--1434.02328mECoRCuttack, Odisha
59KTJIKatha Jori  20:22 19:49-20:23 19:50-1m--1435.52828mECoRCuttack, Odisha
60GBKGopalpur Balkuda  20:30 19:56-20:31 19:57-1m--1438.34728mECoRGopalpur, Odisha
61BRAGBarangX  20:48 20:07-20:49 20:08-1m--1446.15027mECoRDist - Cuttack, Odisha
62PTABPatia P.H.X  20:50 20:15-20:51 20:16-1m--1452.03630mECoRBhubaneshwar, Odisha
63MCSMancheswarO  21:02 20:21-21:03 20:22-1m--1454.93127mECoRMancheswar, Odisha
64BBSBhubaneswar (4)XO  21:15 20:35-21:20 20:40-5m41461.75440mECoRBhubaneshwar, Odisha
65LGTRLingaraj Temple Road  21:24 20:45-21:25 20:46-1m--1466.26039mECoRBhubaneswar, Odisha
66RTNRetang  21:31 20:53-21:32 20:54-1m--1473.34019mECoRKhurdha, Odisha
67KURKhurda Road Junction (7)X  21:45 21:05-21:50 21:10-5m--1480.72025mECoRKhordha, Odisha
68HPGMHaripur GramX  22:01 21:18-22:02 21:19-1m--1483.36522mECoRKhordha, Odisha
69MWQMotari Halt  22:10 21:24-22:11 21:25-1m--1488.74212mECoRMotari, Odisha
70KASRKanas RoadX  22:15 21:30-22:16 21:31-1m--1492.2449mECoRKhordha, Odisha
71DEGDelang  22:27 21:36-22:28 21:37-1m--1495.8379mECoRKhordha, Odisha
72BRSTBir PurushottampurX  22:39 21:48-22:40 21:49-1m--1502.66712mECoRSatasankha, Odisha
73SILSakhi Gopal (3)X  22:47 21:54-22:48 21:55-1m--1508.16010mECoRPuri, Odisha
74JKDPJankidaipur  22:52 22:01-22:53 22:02-1m--1514.23713mECoRChandanpur, Odisha
75MLTMalatipatpur (1)  22:57 22:07-22:58 22:08-1m11517.2515mECoRPuri, Odisha
76PURIPuri (5)  00:15 23:40----1524.6-12mECoRPuri, Odisha
Scroll to Top
Scroll to Bottom